x

Isle Of Shoals, Nh (iosn3) Weather Station

8:00 - Fri 6th Mar 2015 All times are EST. -5 hours from GMT.

  • Wind
    22mph, 25mph gusts
  • Ar Temp 25°f
  • Sea Pressure 1026.1mb
  • Isle Of Shoals, Nh
  • Isle Of Shoals, Nh

More Historic Weather Station data

Upgrade to MSW Pro to gain access to the past 30 days of data for over 8000 Wavebouys and Weather Stations around the globe.

Join Pro

Comparision Forecast

View Surf forecast
   
Sex 03/06 8:00 22 25 mph 1026.1mb 25f
7:00 23 24 mph 1026.7mb 24f
6:00 17 20 mph 1027.3mb 25f
5:00 16 17 mph 1027.6mb 23f
4:00 16 18 mph 1028.3mb 22f
3:00 15 17 mph 1029.2mb 20f
2:00 10 11 mph 1029.7mb 19f
1:00 3 6 mph 1030.5mb 17f
12:00  -  1 mph 1031.6mb 18f
11:00 3 5 mph 1031.9mb 15f
10:00 6 7 mph 1032mb 14f
9:00 8 10 mph 1032.2mb 13f
8:00 13 14 mph 1031.8mb 11f
7:00 11 15 mph 1031.1mb 11f
6:00 13 15 mph 1030.4mb 11f
5:00 16 18 mph 1029.7mb 11f
4:00 16 21 mph 1029mb 12f
3:00 20 22 mph 1028.1mb 12f
2:00 23 25 mph 1027.3mb 14f
1:00 21 25 mph 1026.5mb 15f
12:00 23 25 mph 1025.2mb 17f
Qui 03/05 11:00 21 25 mph 1025.1mb 18f
10:00 20 22 mph 1024.2mb 19f
9:00 22 26 mph 1022.8mb 19f
8:00 23 26 mph 1022.3mb 20f
7:00 20 23 mph 1021.2mb 22f
6:00 15 16 mph 1020mb 22f
5:00 21 23 mph 1018.9mb 22f
4:00 23 28 mph 1018.3mb 23f
3:00 21 23 mph 1018.7mb 24f
2:00 22 23 mph 1018mb 24f
1:00 25 26 mph 1017.4mb 25f
12:00 26 30 mph 1016.9mb 26f
11:00 33 37 mph 1017.2mb 27f
10:00 22 24 mph 1016.3mb 29f
9:00 20 25 mph 1015.4mb 31f
8:00 25 28 mph 1014.4mb 32f
7:00 18 21 mph 1013.6mb 34f
6:00 21 24 mph 1013.1mb 35f
5:00 26 28 mph 1011mb 35f
4:00 20 24 mph 1010.3mb 36f
3:00 21 22 mph 1009.6mb 37f
2:00 13
mph
1009.7mb 38f
1:00 17
mph
1009.2mb 39f
12:00 14
mph
1009.3mb 38f
Qua 03/04 11:00 13
mph
1009.2mb 38f
10:00 20
mph
1008mb 39f
9:00 20 21 mph 1008.8mb 39f
8:00 21 23 mph 1006.9mb 39f
7:00 24 25 mph 1007.4mb 40f
6:00 23
mph
1006.2mb 41f
5:00 20 21 mph 1006mb 41f
4:00 22 23 mph 1005.9mb 43f
3:00 22 23 mph 1005.4mb 43f
2:00 15 16 mph 1005.1mb 42f
1:00 13 14 mph 1005.5mb 43f
12:00 18 20 mph 1006mb 40f
11:00 20
mph
1006.1mb 39f
10:00 11 13 mph 1005.7mb 37f
9:00 15 16 mph 1004.9mb 37f
8:00 16 17 mph 1004.9mb 37f
7:00 20 21 mph 1004.1mb 36f
6:00 18 21 mph 1002.4mb 36f
5:00 23 25 mph 1002mb 35f
4:00 22 23 mph 1002mb 35f
3:00 18 20 mph 1002.5mb 33f
2:00 11 13 mph 1004.8mb 32f
1:00 24 26 mph 1005.9mb 32f
12:00 33 37 mph 1007.5mb 32f
Ter 03/03 11:00 36 39 mph 1009.9mb 30f
10:00 26 31 mph 1012.9mb 29f
9:00 23 28 mph 1015.4mb 27f
8:00 32 37 mph 1017.4mb 26f
7:00 25 28 mph 1018.7mb 30f
6:00 26 28 mph 1019.7mb 28f
5:00 20 21 mph 1021.1mb 29f
4:00 13 15 mph 1022.2mb 28f
3:00 14 15 mph 1023.6mb 26f
2:00 13 14 mph 1024.7mb 25f
1:00 7 9 mph 1026.2mb 25f
12:00 5 6 mph 1027.5mb 24f
11:00 5 6 mph 1027.8mb 23f
10:00 10 11 mph 1027.9mb 21f
9:00 14 15 mph 1028.1mb 20f
8:00 17 20 mph 1027.6mb 19f
7:00 21 24 mph 1026.8mb 19f
6:00 22 24 mph 1026.7mb 20f
5:00 28 31 mph 1025.4mb 20f
4:00 28 32 mph 1024.3mb 21f
3:00 28 31 mph 1023.4mb 22f